W8SZ Weather Reports


Display with metric or nautical units.
time (UTC)temp
F
wind
direction
speed
MPH
gust
MPH
rain 1hr
in
rain 24hr
in
rain mn
in
humidity
%
barometer
mb
20171124220019 50 216 13.0 0.0 0.00 0.00 0.00 69 995.1
20171124215508 50 209 14.0 0.0 0.00 0.00 0.00 70 995.1
20171124215018 50 214 9.0 0.0 0.00 0.00 0.00 69 995.4
20171124214502 50 222 10.0 0.0 0.00 0.00 0.00 69 995.1
20171124214010 51 231 12.0 0.0 0.00 0.00 0.00 68 995.1
20171124213519 51 234 6.0 0.0 0.00 0.00 0.00 68 995.2
20171124213019 51 234 2.0 0.0 0.00 0.00 0.00 67 995.2
20171124212506 51 216 2.0 0.0 0.00 0.00 0.00 67 995.4
20171124212015 51 223 8.0 0.0 0.00 0.00 0.00 66 995.4
20171124211502 51 224 7.0 0.0 0.00 0.00 0.00 66 995.4
20171124211013 51 226 8.0 0.0 0.00 0.00 0.00 66 995.0
20171124210525 52 214 14.0 0.0 0.00 0.00 0.00 66 995.4
20171124210005 52 214 14.0 0.0 0.00 0.00 0.00 65 995.5
20171124205509 52 227 16.0 0.0 0.00 0.00 0.00 65 995.2
20171124204958 52 219 8.0 0.0 0.00 0.00 0.00 65 995.2
20171124204507 52 212 8.0 0.0 0.00 0.00 0.00 65 995.5
20171124203957 51 248 8.0 0.0 0.00 0.00 0.00 65 995.4
20171124203507 51 224 10.0 0.0 0.00 0.00 0.00 65 995.4
20171124203009 51 231 12.0 0.0 0.00 0.00 0.00 66 995.3
20171124202456 51 236 10.0 0.0 0.00 0.00 0.00 66 995.4
20171124202005 51 223 13.0 0.0 0.00 0.00 0.00 65 995.6
20171124201513 51 221 13.0 0.0 0.00 0.00 0.00 66 995.5
20171124201002 51 212 7.0 0.0 0.00 0.00 0.00 66 995.8
20171124200511 51 212 9.0 0.0 0.00 0.00 0.00 66 995.8
20171124200010 51 234 15.0 0.0 0.00 0.00 0.00 65 995.8
20171124195459 50 208 19.0 0.0 0.00 0.00 0.00 66 995.8
20171124195009 50 225 14.0 0.0 0.00 0.00 0.00 65 995.8
20171124194458 50 200 6.0 0.0 0.00 0.00 0.00 65 996.3
20171124194007 50 235 9.0 0.0 0.00 0.00 0.00 66 995.9
20171124193517 50 225 15.0 0.0 0.00 0.00 0.00 67 996.1
20171124192956 49 219 9.0 0.0 0.00 0.00 0.00 67 996.1
20171124192506 49 229 7.0 0.0 0.00 0.00 0.00 68 996.2
20171124191956 49 213 8.0 0.0 0.00 0.00 0.00 68 996.2
20171124191506 48 234 4.0 0.0 0.00 0.00 0.00 69 996.4
20171124190957 48 237 9.0 0.0 0.00 0.00 0.00 69 996.4
20171124190502 48 214 10.0 0.0 0.00 0.00 0.00 68 996.7
20171124190003 48 222 7.0 0.0 0.00 0.00 0.00 69 996.7
20171124185454 48 233 9.0 0.0 0.00 0.00 0.00 69 996.6
20171124185003 48 223 10.0 0.0 0.00 0.00 0.00 69 996.7
20171124184452 47 222 18.0 0.0 0.00 0.00 0.00 70 997.1
20171124184003 47 208 10.0 0.0 0.00 0.00 0.00 71 997.2
20171124183514 46 250 6.0 0.0 0.00 0.00 0.00 71 997.0
20171124182952 46 225 4.0 0.0 0.00 0.00 0.00 72 997.2
20171124182443 46 239 8.0 0.0 0.00 0.00 0.00 71 997.4
20171124181956 45 226 8.0 0.0 0.00 0.00 0.00 72 998.0
20171124181444 45 237 4.0 0.0 0.00 0.00 0.00 73 997.9
20171124180953 45 214 9.0 0.0 0.00 0.00 0.00 73 997.7
20171124180503 45 229 7.0 0.0 0.00 0.00 0.00 73 997.7
20171124175944 45 232 13.0 0.0 0.00 0.00 0.00 73 997.7
20171124175455 44 243 11.0 0.0 0.00 0.00 0.00 74 998.1
20171124174943 44 233 5.0 0.0 0.00 0.00 0.00 74 998.6
20171124174455 44 228 6.0 0.0 0.00 0.00 0.00 75 998.1
20171124173943 44 227 7.0 0.0 0.00 0.00 0.00 75 997.9
20171124173455 44 215 10.0 0.0 0.00 0.00 0.00 75 998.3
20171124172955 43 229 8.0 0.0 0.00 0.00 0.00 76 998.4
20171124172446 43 252 7.0 0.0 0.00 0.00 0.00 76 998.2
20171124171954 43 236 10.0 0.0 0.00 0.00 0.00 77 998.5
20171124171445 43 224 6.0 0.0 0.00 0.00 0.00 77 998.8
20171124170952 42 247 8.0 0.0 0.00 0.00 0.00 77 998.9
20171124170504 42 227 6.0 0.0 0.00 0.00 0.00 77 999.2
20171124165946 42 238 7.0 0.0 0.00 0.00 0.00 77 999.0
20171124165455 42 259 8.0 0.0 0.00 0.00 0.00 79 999.1
20171124164942 42 230 8.0 0.0 0.00 0.00 0.00 78 999.2
20171124164453 42 264 9.0 0.0 0.00 0.00 0.00 79 999.2
20171124163943 41 242 6.0 0.0 0.00 0.00 0.00 79 999.3
20171124163456 41 226 15.0 0.0 0.00 0.00 0.00 79 999.6
20171124162935 41 232 7.0 0.0 0.00 0.00 0.00 79 1000.0
20171124162445 41 195 11.0 0.0 0.00 0.00 0.00 80 999.7
20171124161937 41 248 7.0 0.0 0.00 0.00 0.00 80 999.4
20171124161446 41 235 8.0 0.0 0.00 0.00 0.00 81 999.9
20171124160936 41 239 10.0 0.0 0.00 0.00 0.00 81 999.9
20171124160446 40 234 10.0 0.0 0.00 0.00 0.00 82 999.8
20171124155947 40 222 4.0 0.0 0.00 0.00 0.00 82 1000.0
20171124155454 40 209 7.0 0.0 0.00 0.00 0.00 83 999.9
20171124154944 39 243 12.0 0.0 0.00 0.00 0.00 83 1000.1
20171124154434 39 257 7.0 0.0 0.00 0.00 0.00 84 1000.3
20171124153944 39 252 6.0 0.0 0.00 0.00 0.00 84 1000.2
20171124153453 39 218 9.0 0.0 0.00 0.00 0.00 85 1000.5
20171124152933 38 218 14.0 0.0 0.00 0.00 0.00 85 1001.0
20171124152442 38 233 12.0 0.0 0.00 0.00 0.00 86 1000.5
20171124151933 38 215 13.0 0.0 0.00 0.00 0.00 86 1000.7
20171124151437 38 227 7.0 0.0 0.00 0.00 0.00 86 1000.7
20171124150946 37 227 7.0 0.0 0.00 0.00 0.00 86 1000.6
20171124150456 37 249 6.0 0.0 0.00 0.00 0.00 87 1000.9
20171124145937 37 236 9.0 0.0 0.00 0.00 0.00 87 1000.3
20171124145446 37 225 10.0 0.0 0.00 0.00 0.00 87 1000.9
20171124144937 37 244 10.0 0.0 0.00 0.00 0.00 87 1001.0
20171124144446 37 274 11.0 0.0 0.00 0.00 0.00 87 1001.3
20171124143937 37 234 5.0 0.0 0.00 0.00 0.00 87 1001.3
20171124143447 37 232 8.0 0.0 0.00 0.00 0.00 88 1001.4
20171124142930 37 241 12.0 0.0 0.00 0.00 0.00 88 1001.4
20171124142439 36 225 10.0 0.0 0.00 0.00 0.00 88 1001.2
20171124141929 36 223 11.0 0.0 0.00 0.00 0.00 88 1001.6
20171124141439 36 237 7.0 0.0 0.00 0.00 0.00 89 1001.5
20171124140931 36 222 12.0 0.0 0.00 0.00 0.00 89 1001.8
20171124140441 36 222 3.0 0.0 0.00 0.00 0.00 89 1002.3
20171124135940 36 243 6.0 0.0 0.00 0.00 0.00 89 1001.9
20171124135430 36 225 11.0 0.0 0.00 0.00 0.00 89 1002.2
20171124134941 35 247 13.0 0.0 0.00 0.00 0.00 90 1002.1
20171124134428 35 236 10.0 0.0 0.00 0.00 0.00 89 1001.8
20171124133938 35 246 9.0 0.0 0.00 0.00 0.00 89 1002.2
20171124133450 35 209 9.0 0.0 0.00 0.00 0.00 88 1002.1
20171124132929 35 229 8.0 0.0 0.00 0.00 0.00 88 1002.8
20171124132434 35 224 12.0 0.0 0.00 0.00 0.00 89 1002.8
20171124131924 35 226 8.0 0.0 0.00 0.00 0.00 89 1002.6
20171124131432 35 224 11.0 0.0 0.00 0.00 0.00 89 1002.7
20171124130922 35 241 5.0 0.0 0.00 0.00 0.00 90 1002.8
20171124130422 34 217 9.0 0.0 0.00 0.00 0.00 90 1002.4
20171124125919 34 248 8.0 0.0 0.00 0.00 0.00 90 1002.8
20171124125428 34 235 10.0 0.0 0.00 0.00 0.00 90 1002.3
20171124124430 33 228 11.0 0.0 0.00 0.00 0.00 90 1002.6
20171124123919 33 231 7.0 0.0 0.00 0.00 0.00 90 1002.8
20171124123449 33 224 7.0 0.0 0.00 0.00 0.00 90 1002.7
20171124122927 33 258 8.0 0.0 0.00 0.00 0.00 90 1003.2
20171124122436 33 239 4.0 0.0 0.00 0.00 0.00 90 1003.2
20171124121925 33 231 6.0 0.0 0.00 0.00 0.00 90 1003.6
20171124121434 33 235 7.0 0.0 0.00 0.00 0.00 90 1003.9
20171124120920 33 229 5.0 0.0 0.00 0.00 0.00 89 1003.6
20171124120428 33 246 7.0 0.0 0.00 0.00 0.00 90 1003.7
20171124115930 33 238 4.0 0.0 0.00 0.00 0.00 90 1003.7
20171124115418 33 228 14.0 0.0 0.00 0.00 0.00 90 1003.6
20171124114930 33 230 7.0 0.0 0.00 0.00 0.00 90 1003.6
20171124114418 33 223 9.0 0.0 0.00 0.00 0.00 89 1004.0
20171124113923 33 223 6.0 0.0 0.00 0.00 0.00 89 1004.0
20171124113430 33 220 6.0 0.0 0.00 0.00 0.00 89 1004.3
20171124112929 33 219 5.0 0.0 0.00 0.00 0.00 88 1004.1
20171124112415 33 219 9.0 0.0 0.00 0.00 0.00 88 1004.0
20171124111923 33 225 8.0 0.0 0.00 0.00 0.00 88 1003.9
20171124111413 33 219 6.0 0.0 0.00 0.00 0.00 88 1003.8
20171124110921 33 224 9.0 0.0 0.00 0.00 0.00 87 1004.2
20171124110430 33 222 10.0 0.0 0.00 0.00 0.00 87 1004.6
20171124105930 33 225 4.0 0.0 0.00 0.00 0.00 87 1004.7
20171124105420 33 226 6.0 0.0 0.00 0.00 0.00 87 1005.2
20171124104910 33 226 8.0 0.0 0.00 0.00 0.00 87 1004.9
20171124104420 33 225 11.0 0.0 0.00 0.00 0.00 87 1004.9
20171124103910 33 224 4.0 0.0 0.00 0.00 0.00 88 1005.1
20171124103419 33 224 7.0 0.0 0.00 0.00 0.00 88 1005.2
20171124102919 33 224 8.0 0.0 0.00 0.00 0.00 89 1005.2
20171124102410 33 227 5.0 0.0 0.00 0.00 0.00 89 1005.0
20171124101920 33 228 4.0 0.0 0.00 0.00 0.00 89 1005.5
20171124101411 32 226 8.0 0.0 0.00 0.00 0.00 90 1005.4
20171124100918 32 226 9.0 0.0 0.00 0.00 0.00 89 1005.4
20171124100429 32 226 6.0 0.0 0.00 0.00 0.00 90 1005.6
20171124095909 32 229 7.0 0.0 0.00 0.00 0.00 90 1005.8
20171124095413 32 220 6.0 0.0 0.00 0.00 0.00 90 1005.5
20171124094924 32 228 9.0 0.0 0.00 0.00 0.00 91 1005.6
20171124094412 32 229 7.0 0.0 0.00 0.00 0.00 91 1006.1
20171124093921 32 227 5.0 0.0 0.00 0.00 0.00 92 1006.1
20171124093434 31 229 6.0 0.0 0.00 0.00 0.00 93 1006.0
20171124092912 31 232 6.0 0.0 0.00 0.00 0.00 94 1006.1
20171124092421 31 234 5.0 0.0 0.00 0.00 0.00 94 1006.4
20171124091909 31 242 6.0 0.0 0.00 0.00 0.00 95 1006.6
20171124091419 31 260 7.0 0.0 0.00 0.00 0.00 96 1006.5
20171124090910 31 275 6.0 0.0 0.00 0.00 0.00 96 1006.6
20171124090418 31 276 7.0 0.0 0.00 0.00 0.00 96 1006.8
20171124085919 30 276 5.0 0.0 0.00 0.00 0.00 96 1006.9
20171124085408 30 276 3.0 0.0 0.00 0.00 0.00 95 1006.8
20171124084917 31 276 4.0 0.0 0.00 0.00 0.00 95 1006.8
20171124084405 31 276 4.0 0.0 0.00 0.00 0.00 95 1007.4
20171124083915 31 276 6.0 0.0 0.00 0.00 0.00 95 1007.4
20171124083423 31 276 5.0 0.0 0.00 0.00 0.00 95 1007.2
20171124082902 30 276 4.0 0.0 0.00 0.00 0.00 96 1007.3
20171124082412 30 276 3.0 0.0 0.00 0.00 0.00 96 1007.4
20171124081904 30 276 4.0 0.0 0.00 0.00 0.00 97 1007.6
20171124081412 30 276 3.0 0.0 0.00 0.00 0.00 97 1007.8
20171124080903 30 276 3.0 0.0 0.00 0.00 0.00 97 1008.1
20171124080429 30 276 2.0 0.0 0.00 0.00 0.00 97 1008.5
20171124075909 30 276 2.0 0.0 0.00 0.00 0.00 97 1008.2
20171124075419 30 276 2.0 0.0 0.00 0.00 0.00 97 1008.1
20171124074909 30 276 3.0 0.0 0.00 0.00 0.00 97 1008.5
20171124074418 30 276 2.0 0.0 0.00 0.00 0.00 97 1007.9
20171124073909 30 276 2.0 0.0 0.00 0.00 0.00 97 1007.8
20171124073418 30 276 2.0 0.0 0.00 0.00 0.00 97 1008.0
20171124072918 29 276 7.0 0.0 0.00 0.00 0.00 96 1008.0
20171124072407 29 276 1.0 0.0 0.00 0.00 0.00 96 1008.1
20171124071916 30 276 1.0 0.0 0.00 0.00 0.00 96 1008.0
20171124071407 30 276 2.0 0.0 0.00 0.00 0.00 96 1008.0
20171124070918 30 276 4.0 0.0 0.00 0.00 0.00 96 1008.1
20171124070426 30 276 3.0 0.0 0.00 0.00 0.00 96 1007.7
20171124065906 29 276 4.0 0.0 0.00 0.00 0.00 97 1007.8
20171124065415 29 276 3.0 0.0 0.00 0.00 0.00 97 1007.5
20171124064903 29 276 8.0 0.0 0.00 0.00 0.00 97 1007.9
20171124064413 28 276 4.0 0.0 0.00 0.00 0.00 97 1007.9
20171124063903 28 276 6.0 0.0 0.00 0.00 0.00 97 1008.6
20171124063416 28 276 4.0 0.0 0.00 0.00 0.00 97 1008.2
20171124062913 28 276 3.0 0.0 0.00 0.00 0.00 97 1008.7
20171124062403 28 276 3.0 0.0 0.00 0.00 0.00 97 1008.6
20171124061908 28 276 3.0 0.0 0.00 0.00 0.00 97 1009.1
20171124061358 28 276 4.0 0.0 0.00 0.00 0.00 97 1009.7
20171124060909 28 276 3.0 0.0 0.00 0.00 0.00 97 1009.4
20171124060419 28 276 2.0 0.0 0.00 0.00 0.00 97 1009.5
20171124055857 28 276 2.0 0.0 0.00 0.00 0.00 96 1009.9
20171124055406 28 276 2.0 0.0 0.00 0.00 0.00 96 1009.7
20171124054858 28 276 1.0 0.0 0.00 0.00 0.00 96 1009.8
20171124054407 28 276 3.0 0.0 0.00 0.00 0.00 96 1009.8
20171124053856 28 276 2.0 0.0 0.00 0.00 0.00 96 1010.2
20171124053407 28 276 1.0 0.0 0.00 0.00 0.00 95 1010.2
20171124052905 28 276 2.0 0.0 0.00 0.00 0.00 95 1010.6
20171124052354 29 276 2.0 0.0 0.00 0.00 0.00 95 1010.5
20171124051904 29 276 3.0 0.0 0.00 0.00 0.00 95 1010.3
20171124051412 29 276 2.0 0.0 0.00 0.00 0.00 95 1010.3
20171124050902 29 276 0.0 0.0 0.00 0.00 0.00 94 1010.3
20171124050412 29 276 3.0 0.0 0.00 0.00 0.00 94 1010.4
20171124045910 29 276 3.0 0.0 0.00 0.00 0.00 94 1010.2
20171124045357 29 276 2.0 0.0 0.00 0.00 0.00 94 1010.4
20171124044907 29 276 3.0 0.0 0.00 0.00 0.00 94 1010.2
20171124044414 29 276 3.0 0.0 0.00 0.00 0.00 95 1010.2
20171124043902 29 276 3.0 0.0 0.00 0.00 0.00 95 1010.2
20171124043408 29 276 2.0 0.0 0.00 0.00 0.00 96 1010.3
20171124042906 29 276 3.0 0.0 0.00 0.00 0.00 96 1010.1
20171124042355 29 276 3.0 0.0 0.00 0.00 0.00 97 1010.1
20171124041905 29 276 2.0 0.0 0.00 0.00 0.00 97 1010.1
20171124041355 29 276 3.0 0.0 0.00 0.00 0.00 97 1009.8
20171124040906 28 276 3.0 0.0 0.00 0.00 0.00 98 1009.6
20171124040417 28 276 4.0 0.0 0.00 0.00 0.00 98 1009.9
20171124035857 28 276 2.0 0.0 0.00 0.00 0.00 98 1010.0
20171124035410 28 276 2.0 0.0 0.00 0.00 0.00 98 1009.7
20171124034859 28 276 2.0 0.0 0.00 0.00 0.00 99 1010.4
20171124034409 28 276 2.0 0.0 0.00 0.00 0.00 99 1010.1
20171124033856 28 276 3.0 0.0 0.00 0.00 0.00 99 1010.6
20171124033407 28 276 2.0 0.0 0.00 0.00 0.00 99 1010.2
20171124032906 28 276 0.0 0.0 0.00 0.00 0.00 99 1010.4
20171124032356 28 276 2.0 0.0 0.00 0.00 0.00 99 1010.5
20171124031907 28 276 3.0 0.0 0.00 0.00 0.00 98 1010.6
20171124031358 28 276 1.0 0.0 0.00 0.00 0.00 99 1010.8
20171124030905 28 276 0.0 0.0 0.00 0.00 0.00 98 1010.9
20171124030414 28 276 0.0 0.0 0.00 0.00 0.00 98 1010.8
20171124025848 28 276 1.0 0.0 0.00 0.00 0.00 98 1011.0
20171124025356 28 276 0.0 0.0 0.00 0.00 0.00 98 1010.9
20171124024904 28 276 1.0 0.0 0.00 0.00 0.00 98 1011.2
20171124024352 28 276 0.0 0.0 0.00 0.00 0.00 97 1011.2
20171124023901 28 276 0.0 0.0 0.00 0.00 0.00 97 1011.1
20171124023411 28 276 0.0 0.0 0.00 0.00 0.00 97 1011.2
20171124022847 28 276 0.0 0.0 0.00 0.00 0.00 97 1010.9
20171124022357 28 276 0.0 0.0 0.00 0.00 0.00 97 1011.1
20171124021904 28 276 0.0 0.0 0.00 0.00 0.00 97 1011.0
20171124021354 28 276 0.0 0.0 0.00 0.00 0.00 96 1011.2
20171124020902 28 276 0.0 0.0 0.00 0.00 0.00 97 1011.1
20171124020413 28 276 0.0 0.0 0.00 0.00 0.00 97 1011.6
20171124015853 28 276 1.0 0.0 0.00 0.00 0.00 96 1011.5
20171124015405 28 276 0.0 0.0 0.00 0.00 0.00 96 1011.2
20171124014851 29 276 1.0 0.0 0.00 0.00 0.00 96 1011.6
20171124014402 29 276 1.0 0.0 0.00 0.00 0.00 95 1011.4
20171124013849 29 276 2.0 0.0 0.00 0.00 0.00 95 1011.5
20171124013358 29 276 2.0 0.0 0.00 0.00 0.00 95 1011.4
20171124012857 29 276 1.0 3.0 0.00 0.00 0.00 94 1011.2
20171124012403 29 276 1.0 2.0 0.00 0.00 0.00 94 1011.1
20171124011851 29 276 1.0 3.0 0.00 0.00 0.00 94 1011.3
20171124011354 30 276 1.0 3.0 0.00 0.00 0.00 93 1011.4
20171124010856 30 276 2.0 3.0 0.00 0.00 0.00 93 1011.1
20171124010403 30 276 2.0 3.0 0.00 0.00 0.00 92 1010.9
20171124005900 31 276 2.0 3.0 0.00 0.00 0.00 92 1011.3
20171124005347 31 276 1.0 3.0 0.00 0.00 0.00 92 1011.4
20171124004855 31 276 1.0 2.0 0.00 0.00 0.00 91 1011.3
20171124004401 32 276 2.0 2.0 0.00 0.00 0.00 91 1011.2
20171124003849 32 276 1.0 3.0 0.00 0.00 0.00 90 1011.2
20171124003356 32 276 1.0 3.0 0.00 0.00 0.00 90 1011.4
20171124002856 33 276 1.0 2.0 0.00 0.00 0.00 90 1011.3
20171124002402 33 276 1.0 2.0 0.00 0.00 0.00 90 1011.3
20171124001846 33 276 1.0 2.0 0.00 0.00 0.00 90 1011.3
20171124001351 33 276 1.0 2.0 0.00 0.00 0.00 91 1011.0
20171124000856 33 276 1.0 2.0 0.00 0.00 0.00 91 1011.0
20171124000401 33 276 1.0 2.0 0.00 0.00 0.00 91 1010.9
20171123235857 33 276 1.0 2.0 0.00 0.00 0.00 91 1011.0
20171123235345 33 276 1.0 2.0 0.00 0.00 0.00 90 1011.0
20171123234854 34 276 1.0 2.0 0.00 0.00 0.00 90 1011.0
20171123234355 34 276 1.0 2.0 0.00 0.00 0.00 90 1011.2
20171123233843 34 276 1.0 2.0 0.00 0.00 0.00 90 1011.2
20171123233411 34 276 1.0 3.0 0.00 0.00 0.00 89 1010.8
20171123232846 34 276 1.0 3.0 0.00 0.00 0.00 90 1011.1
20171123232353 34 276 1.0 2.0 0.00 0.00 0.00 89 1010.9
20171123231842 34 276 1.0 2.0 0.00 0.00 0.00 89 1011.3
20171123231346 34 276 1.0 2.0 0.00 0.00 0.00 88 1011.0
20171123230853 34 276 1.0 2.0 0.00 0.00 0.00 87 1010.8
20171123230359 34 276 1.0 2.0 0.00 0.00 0.00 88 1010.7
20171123225851 34 276 1.0 2.0 0.00 0.00 0.00 87 1010.8
20171123225342 34 276 1.0 2.0 0.00 0.00 0.00 87 1010.7
20171123224849 35 276 1.0 1.0 0.00 0.00 0.00 87 1010.7
20171123224352 35 276 1.0 2.0 0.00 0.00 0.00 88 1010.6
20171123223843 35 276 1.0 2.0 0.00 0.00 0.00 87 1010.8
20171123223351 35 276 1.0 1.0 0.00 0.00 0.00 86 1010.7
20171123222847 35 276 0.0 1.0 0.00 0.00 0.00 84 1010.5
20171123222340 35 276 0.0 0.0 0.00 0.00 0.00 84 1010.6
20171123221847 36 276 0.0 0.0 0.00 0.00 0.00 83 1010.7
20171123221351 36 276 0.0 0.0 0.00 0.00 0.00 82 1010.7
20171123220839 36 276 0.0 0.0 0.00 0.00 0.00 82 1010.9
20171123220347 36 276 0.0 0.0 0.00 0.00 0.00 82 1010.5